Selinsgrove, PA

11:31 AM EDT on July 28, 2017 (GMT -0400)
Penn Valley

Weather History for KSEG - November, 2013

Change the Weather History Date:

Sunday, November 10, 2013

  Actual Average (KIPT) Record (KIPT)
Temperature  
Mean Temperature 42 °F -  
Max Temperature 54 °F 49 °F 73 °F (1931)
Min Temperature 30 °F 31 °F 19 °F (2003)
Degree Days  
Heating Degree Days 23    
Moisture  
Dew Point 29 °F    
Average Humidity 58    
Maximum Humidity 92    
Minimum Humidity 38    
Precipitation  
Precipitation 0.00 in - - ()
Sea Level Pressure  
Sea Level Pressure 30.01 in    
Wind  
Wind Speed 5 mph (West)    
Max Wind Speed 17 mph    
Max Gust Speed 32 mph    
Visibility 10 miles    
Events      
Averages and records for this station are not official NWS values.
T = Trace of Precipitation, MM = Missing Value Source: NWS Daily Summary

Daily Weather History Graph

Daily Weather History Graph

Search for Another Location

Airport or City:

Trip Planner

Search our weather history database for the weather conditions in past years. The results will help you decide how hot, cold, wet, or windy it might be!

Date:

Astronomy

Nov. 10, 2013 Rise Set
Actual Time 6:48 AM EST 4:53 PM EST
Civil Twilight 6:19 AM EST 5:22 PM EST
Nautical Twilight 5:46 AM EST 5:55 PM EST
Astronomical Twilight 5:14 AM EST 6:27 PM EST
Moon 1:00 PM EST (11/10) No Moon Set
Length of Visible Light 11h 02m
Length of Day
10h 04m
First Quarter, 55% of the Moon is Illuminated
Nov 10
First Quarter
Nov 17
Full
Nov 25
Last Quarter
Dec 2
New
Dec 9
First Quarter

Hourly Weather History & Observations

Time (EST) Temp. Windchill Dew Point Humidity Pressure Visibility Wind Dir Wind Speed Gust Speed Precip Events Conditions
12:53 AM 37.0 °F 34.5 °F 28.9 °F 73% 29.95 in 10.0 mi SW 3.5 mph - N/A   Scattered Clouds
1:53 AM 39.0 °F 36.8 °F 28.9 °F 67% 29.93 in 10.0 mi SW 3.5 mph - N/A   Mostly Cloudy
2:53 AM 36.0 °F - 28.9 °F 76% 29.93 in 10.0 mi Calm Calm - N/A   Partly Cloudy
3:53 AM 32.0 °F - 28.0 °F 85% 29.92 in 10.0 mi Calm Calm - N/A   Clear
4:53 AM 32.0 °F - 28.9 °F 88% 29.92 in 9.0 mi Calm Calm - N/A   Partly Cloudy
5:53 AM 30.9 °F - 28.0 °F 89% 29.92 in 10.0 mi Calm Calm - N/A   Clear
6:53 AM 30.0 °F - 28.0 °F 92% 29.93 in 9.0 mi Calm Calm - N/A   Clear
7:53 AM 37.9 °F - 33.1 °F 83% 29.93 in 10.0 mi Calm Calm - N/A   Clear
8:53 AM 48.0 °F - 36.0 °F 63% 29.93 in 10.0 mi SW 4.6 mph - N/A   Mostly Cloudy
9:53 AM 53.1 °F - 32.0 °F 45% 29.92 in 10.0 mi West 8.1 mph 24.2 mph N/A   Mostly Cloudy
10:53 AM 54.0 °F - 28.9 °F 38% 29.94 in 10.0 mi West 17.3 mph 25.3 mph N/A   Overcast
11:53 AM 52.0 °F - 28.0 °F 40% 29.95 in 10.0 mi WNW 12.7 mph 29.9 mph N/A   Overcast
12:53 PM 53.1 °F - 28.0 °F 38% 29.94 in 10.0 mi West 15.0 mph 32.2 mph N/A   Overcast
1:53 PM 52.0 °F - 27.0 °F 38% 29.97 in 10.0 mi WNW 15.0 mph 24.2 mph N/A   Mostly Cloudy
2:53 PM 51.1 °F - 27.0 °F 39% 30.00 in 10.0 mi West 11.5 mph 23.0 mph N/A   Overcast
3:53 PM 50.0 °F - 27.0 °F 41% 30.03 in 10.0 mi WNW 5.8 mph 19.6 mph N/A   Overcast
4:53 PM 48.0 °F - 26.1 °F 42% 30.06 in 10.0 mi WNW 11.5 mph - N/A   Mostly Cloudy
5:53 PM 48.0 °F - 27.0 °F 44% 30.09 in 10.0 mi WNW 12.7 mph 19.6 mph N/A   Overcast
6:53 PM 48.0 °F - 27.0 °F 44% 30.11 in 10.0 mi West 8.1 mph 25.3 mph N/A   Overcast
7:53 PM 46.9 °F - 28.0 °F 48% 30.13 in 10.0 mi WNW 9.2 mph 17.3 mph N/A   Overcast
8:53 PM 46.9 °F - 28.9 °F 50% 30.15 in 10.0 mi WNW 8.1 mph 19.6 mph N/A   Overcast
9:53 PM 46.0 °F 41.9 °F 28.9 °F 51% 30.17 in 10.0 mi WNW 8.1 mph - N/A   Overcast
10:53 PM 44.1 °F 39.5 °F 26.1 °F 49% 30.18 in 10.0 mi NW 8.1 mph - N/A   Mostly Cloudy
11:53 PM 39.0 °F 35.7 °F 27.0 °F 62% 30.18 in 10.0 mi WNW 4.6 mph - N/A   Clear